Regional Weather Roundup
Issued by NWS

Home | Current Version | Previous Version | Graphics & Text | Print | Product List | Glossary On
Versions: 1 2 3 4 5 6 7 8 9 10 11 12 13 14 15 16 17 18 19 20 21 22 23 24 25 26 27 28 29 30 31 32 33 34 35 36 37 38 39 40 41 42 43 44 45 46 47 48 49 50
101
ASUS43 KLMK 260710
RWRKY
KENTUCKY REGIONAL WEATHER ROUNDUP
NATIONAL WEATHER SERVICE LOUISVILLE KY
300 AM EDT TUE JUL 26 2016

NOTE "FAIR" INDICATES FEW OR NO CLOUDS BELOW 12,000 FEET
WITH NO SIGNIFICANT WEATHER AND/OR OBSTRUCTIONS TO VISIBILITY.

KYZ001>023-026-027-061>063-070>075-260800-
WESTERN AND SOUTH CENTRAL KENTUCKY

CITY           SKY/WX    TMP DP  RH WIND       PRES   REMARKS
PADUCAH        CLOUDY    75  73  93 CALM      29.98F
HENDERSON      NOT AVBL
OWENSBORO      CLEAR     75  75 100 CALM      30.00S
HOPKINSVILLE   CLEAR     74  73  95 CALM      30.00F
BOWLING GREEN  CLEAR     75  73  93 CALM      30.01F
GLASGOW        CLEAR     73  73 100 CALM      30.03R
$$

KYZ024-025-028>034-038-045-046-053-260800-
NORTH CENTRAL KENTUCKY

CITY           SKY/WX    TMP DP  RH WIND       PRES   REMARKS
LOUISVILLE/SDF MOCLDY    77  73  87 SW5       30.00F
LOUISVILLE/LOU CLEAR     76  73  91 SE3       30.00F
FORT KNOX      CLEAR     72  72 100 CALM      30.00F
$$

KYZ035>037-039>044-047>052-055>060-089>105-260800-
NORTHEAST KENTUCKY

CITY           SKY/WX    TMP DP  RH WIND       PRES   REMARKS
LEXINGTON      PTCLDY    74  72  93 CALM      30.04S
COVINGTON      CLOUDY    76  75  97 SW3       30.02R
FRANKFORT      CLEAR     73  71  93 SW5       30.01F
$$

KYZ054-064>069-076>088-106>120-260800-
SOUTHEAST KENTUCKY

CITY           SKY/WX    TMP DP  RH WIND       PRES   REMARKS
JACKSON        FOG       73  71  93 CALM      30.04F VSB 1/2
LONDON         CLEAR     71  67  87 S3        30.05R
SOMERSET       PTCLDY    70  70 100 CALM      30.05S FOG
MIDDLESBORO    CLEAR     72  69  93 CALM      30.06S
MONTICELLO     SUNNY    N/A N/A N/A N8        30.06R
$$





USA.gov is the U.S. government's official web portal to all federal, state and local government web resources and services.